Flag for Brazil Weather past 2 weeks in Cuiabá, Mato Grosso, Brazil

Now
77 °F

Passing clouds.


Feels Like: 78 °F
Forecast: N/A
Wind: 3 mph from East

Location: Cuiaba Aeroporto

Current Time: Apr 26, 2015 at 7:05:21 PM

Latest Report: Apr 26, 2015 at 6:00 PM


Visibility: N/A

Pressure: 29.89 "Hg

Humidity: 83%

Dew point: 72 °F

Location of CuiabáLocation

Historic Weather in Cuiabá — Graph

°F

Cuiabá temperature yesterday

Maximum temperature yesterday: 90 °F (at 2:00 PM)
Minimum temperature yesterday: 73 °F (at 6:00 AM)
Average temperature yesterday: 81 °F

Past Weeks' High & Low Weather Summary

 TemperatureHumidityPressure
High93 °F (Apr 16, 1:00 PM)100% (Apr 15, 12:00 AM)30.04 "Hg (Apr 15, 12:00 AM)
Low73 °F (Apr 12, 1:00 AM)46% (Apr 12, 2:00 PM)29.80 "Hg (Apr 15, 4:00 PM)
Average80 °F81%29.92 "Hg
* Reported Apr 11 5:00 PM — Apr 26 5:00 PM, Cuiabá, Weather by CustomWeather, © 2015

Note: Actual official high and low records may vary slightly from our data, if they occured in-between our weather recording intervals... More about our weather records

Advertising

Cuiabá weather history for previous 24 hours

 ConditionsComfort  
Time TempWeatherWind HumidityBarometerVisibility
5:00 PM
Sun, Apr 26
79 °FScattered clouds.5 mph79%29.86 "HgN/A
4:00 PM82 °FThunderstorms. Scattered clouds.6 mph74%29.86 "HgN/A
3:00 PM86 °FScattered showers. Scattered clouds.13 mph62%29.83 "HgN/A
2:00 PM91 °FScattered clouds.6 mph59%29.86 "HgN/A
1:00 PM90 °FScattered clouds.6 mph63%29.92 "HgN/A
12:00 PM90 °FScattered clouds.2 mph59%29.92 "HgN/A
11:00 AM88 °FScattered clouds.2 mph66%29.95 "HgN/A
10:00 AM86 °FPassing clouds.3 mph70%29.98 "HgN/A
9:00 AM84 °FPassing clouds.No wind70%29.98 "HgN/A
8:00 AM81 °FPassing clouds.2 mph84%29.98 "HgN/A
7:00 AM77 °FSunny.No wind94%29.98 "Hg10 mi
6:00 AM75 °FSunny.2 mph94%29.95 "Hg10 mi
5:00 AM75 °FClear.2 mph94%29.92 "Hg10 mi
4:00 AM75 °FClear.2 mph94%29.92 "Hg10 mi
3:00 AM75 °FClear.No wind94%29.92 "Hg10 mi
2:00 AM75 °FClear.No wind94%29.92 "Hg10 mi
1:00 AM77 °FClear.No wind89%29.95 "Hg10 mi
12:00 AM77 °FClear.2 mph89%29.95 "Hg10 mi
11:00 PM
Sat, Apr 25
77 °FClear.3 mph89%29.95 "Hg10 mi
10:00 PM79 °FClear.No wind84%29.95 "Hg10 mi
9:00 PM79 °FClear.2 mph84%29.95 "Hg10 mi
8:00 PM79 °FClear.2 mph84%29.95 "Hg10 mi
7:00 PM79 °FClear.2 mph84%29.92 "Hg10 mi
Weather by CustomWeather, © 2015

See weather overviewHow to use our weather pages